| time (UTC) | temp F | wind direction | speed MPH | gust MPH | rain 1hr in | rain 24hr in | rain mn in | humidity % | barometer mb |
| 20260506133347 | 77 | 150 | 20.0 | 0.0 | 0.00 | 0.00 | 0.00 | 32 | 1013.0 |
| 20260506131847 | 77 | 160 | 20.0 | 0.0 | 0.00 | 0.00 | 0.00 | 32 | 1013.0 |
| 20260506130356 | 77 | 160 | 20.0 | 0.0 | 0.00 | 0.00 | 0.00 | 32 | 1013.0 |
| 20260506124848 | 77 | 160 | 20.0 | 0.0 | 0.00 | 0.00 | 0.00 | 34 | 1013.0 |
| 20260506123347 | 77 | 160 | 20.0 | 0.0 | 0.00 | 0.00 | 0.00 | 34 | 1013.0 |
| 20260506121848 | 77 | 160 | 18.0 | 0.0 | 0.00 | 0.00 | 0.00 | 34 | 1013.0 |
| 20260506120347 | 77 | 160 | 18.0 | 0.0 | 0.00 | 0.00 | 0.00 | 34 | 1013.0 |
| 20260506114847 | 77 | 150 | 17.0 | 0.0 | 0.00 | 0.00 | 0.00 | 32 | 1013.0 |
| 20260506113348 | 77 | 150 | 17.0 | 0.0 | 0.00 | 0.00 | 0.00 | 32 | 1013.0 |
| 20260506111847 | 75 | 150 | 17.0 | 0.0 | 0.00 | 0.00 | 0.00 | 34 | 1014.0 |
| 20260506110347 | 75 | 150 | 17.0 | 0.0 | 0.00 | 0.00 | 0.00 | 34 | 1014.0 |
| 20260506104847 | 75 | 150 | 16.0 | 0.0 | 0.00 | 0.00 | 0.00 | 34 | 1014.0 |
| 20260506103348 | 75 | 150 | 16.0 | 0.0 | 0.00 | 0.00 | 0.00 | 34 | 1014.0 |
| 20260506101848 | 73 | 150 | 16.0 | 0.0 | 0.00 | 0.00 | 0.00 | 38 | 1014.0 |
| 20260506100347 | 73 | 150 | 16.0 | 0.0 | 0.00 | 0.00 | 0.00 | 38 | 1014.0 |
| 20260506094848 | 72 | 170 | 17.0 | 0.0 | 0.00 | 0.00 | 0.00 | 41 | 1014.0 |
| 20260506093347 | 72 | 170 | 17.0 | 0.0 | 0.00 | 0.00 | 0.00 | 41 | 1014.0 |
| 20260506091847 | 72 | 160 | 16.0 | 0.0 | 0.00 | 0.00 | 0.00 | 41 | 1014.0 |
| 20260506090347 | 72 | 160 | 16.0 | 0.0 | 0.00 | 0.00 | 0.00 | 41 | 1014.0 |
| 20260506084847 | 70 | 170 | 14.0 | 0.0 | 0.00 | 0.00 | 0.00 | 46 | 1014.0 |
| 20260506083347 | 70 | 170 | 14.0 | 0.0 | 0.00 | 0.00 | 0.00 | 46 | 1014.0 |
| 20260506081844 | 68 | 170 | 11.0 | 0.0 | 0.00 | 0.00 | 0.00 | 49 | 1014.0 |
| 20260506080347 | 68 | 170 | 11.0 | 0.0 | 0.00 | 0.00 | 0.00 | 49 | 1014.0 |
| 20260506073347 | 64 | 170 | 9.0 | 0.0 | 0.00 | 0.00 | 0.00 | 56 | 1014.0 |
| 20260506071847 | 63 | 160 | 8.0 | 0.0 | 0.00 | 0.00 | 0.00 | 59 | 1014.0 |
| 20260506070347 | 63 | 160 | 8.0 | 0.0 | 0.00 | 0.00 | 0.00 | 59 | 1014.0 |
| 20260506061848 | 57 | 160 | 9.0 | 0.0 | 0.00 | 0.00 | 0.00 | 63 | 1014.0 |
| 20260506060349 | 57 | 160 | 9.0 | 0.0 | 0.00 | 0.00 | 0.00 | 63 | 1014.0 |
| 20260506050401 | 54 | 170 | 8.0 | 0.0 | 0.00 | 0.00 | 0.00 | 67 | 1014.0 |
| 20260506044903 | 50 | 170 | 9.0 | 0.0 | 0.00 | 0.00 | 0.00 | 76 | 1014.0 |
| 20260506043351 | 50 | 170 | 9.0 | 0.0 | 0.00 | 0.00 | 0.00 | 76 | 1014.0 |
| 20260506041848 | 48 | 170 | 7.0 | 0.0 | 0.00 | 0.00 | 0.00 | 82 | 1014.0 |
| 20260506040348 | 48 | 170 | 7.0 | 0.0 | 0.00 | 0.00 | 0.00 | 82 | 1014.0 |
| 20260506034848 | 46 | 180 | 6.0 | 0.0 | 0.00 | 0.00 | 0.00 | 87 | 1014.0 |
| 20260506033347 | 46 | 180 | 6.0 | 0.0 | 0.00 | 0.00 | 0.00 | 87 | 1014.0 |
| 20260506031847 | 46 | 180 | 8.0 | 0.0 | 0.00 | 0.00 | 0.00 | 82 | 1014.0 |
| 20260506030347 | 46 | 180 | 8.0 | 0.0 | 0.00 | 0.00 | 0.00 | 82 | 1014.0 |
| 20260506024847 | 46 | 190 | 9.0 | 0.0 | 0.00 | 0.00 | 0.00 | 82 | 1014.0 |
| 20260506023347 | 46 | 190 | 9.0 | 0.0 | 0.00 | 0.00 | 0.00 | 82 | 1014.0 |
| 20260506021844 | 46 | 190 | 8.0 | 0.0 | 0.00 | 0.00 | 0.00 | 82 | 1014.0 |
| 20260506020347 | 46 | 190 | 8.0 | 0.0 | 0.00 | 0.00 | 0.00 | 82 | 1014.0 |
| 20260506014847 | 48 | 180 | 8.0 | 0.0 | 0.00 | 0.00 | 0.00 | 76 | 1014.0 |
| 20260506013347 | 48 | 180 | 8.0 | 0.0 | 0.00 | 0.00 | 0.00 | 76 | 1014.0 |
| 20260506011848 | 48 | 180 | 10.0 | 0.0 | 0.00 | 0.00 | 0.00 | 76 | 1014.0 |
| 20260506010347 | 48 | 180 | 10.0 | 0.0 | 0.00 | 0.00 | 0.00 | 76 | 1014.0 |
| 20260506004844 | 50 | 170 | 11.0 | 0.0 | 0.00 | 0.00 | 0.00 | 71 | 1014.0 |
| 20260506003509 | 50 | 170 | 11.0 | 0.0 | 0.00 | 0.00 | 0.00 | 71 | 1014.0 |
| 20260506001848 | 50 | 170 | 13.0 | 0.0 | 0.00 | 0.00 | 0.00 | 76 | 1014.0 |
| 20260506000348 | 50 | 170 | 13.0 | 0.0 | 0.00 | 0.00 | 0.00 | 76 | 1014.0 |
| 20260505234847 | 50 | 170 | 11.0 | 0.0 | 0.00 | 0.00 | 0.00 | 76 | 1014.0 |
| 20260505233347 | 50 | 170 | 11.0 | 0.0 | 0.00 | 0.00 | 0.00 | 76 | 1014.0 |
| 20260505231847 | 52 | 180 | 13.0 | 0.0 | 0.00 | 0.00 | 0.00 | 72 | 1014.0 |
| 20260505230348 | 52 | 180 | 13.0 | 0.0 | 0.00 | 0.00 | 0.00 | 72 | 1014.0 |
| 20260505224848 | 54 | 180 | 15.0 | 0.0 | 0.00 | 0.00 | 0.00 | 67 | 1014.0 |
| 20260505223347 | 54 | 180 | 15.0 | 0.0 | 0.00 | 0.00 | 0.00 | 67 | 1014.0 |
| 20260505221845 | 55 | 170 | 15.0 | 0.0 | 0.00 | 0.00 | 0.00 | 67 | 1014.0 |
| 20260505220348 | 55 | 170 | 15.0 | 0.0 | 0.00 | 0.00 | 0.00 | 67 | 1014.0 |
| 20260505214848 | 55 | 170 | 15.0 | 0.0 | 0.00 | 0.00 | 0.00 | 72 | 1014.0 |
| 20260505213348 | 55 | 170 | 15.0 | 0.0 | 0.00 | 0.00 | 0.00 | 72 | 1014.0 |
| 20260505211847 | 57 | 170 | 14.0 | 0.0 | 0.00 | 0.00 | 0.00 | 67 | 1014.0 |
| 20260505210347 | 57 | 170 | 14.0 | 0.0 | 0.00 | 0.00 | 0.00 | 67 | 1014.0 |
| 20260505204849 | 59 | 160 | 15.0 | 0.0 | 0.00 | 0.00 | 0.00 | 63 | 1013.0 |
| 20260505203347 | 59 | 160 | 15.0 | 0.0 | 0.00 | 0.00 | 0.00 | 63 | 1013.0 |
| 20260505201918 | 59 | 170 | 10.0 | 0.0 | 0.00 | 0.00 | 0.00 | 63 | 1013.0 |
| 20260505200348 | 59 | 170 | 10.0 | 0.0 | 0.00 | 0.00 | 0.00 | 63 | 1013.0 |
| 20260505194847 | 61 | 160 | 9.0 | 0.0 | 0.00 | 0.00 | 0.00 | 59 | 1013.0 |
| 20260505193347 | 61 | 160 | 9.0 | 0.0 | 0.00 | 0.00 | 0.00 | 59 | 1013.0 |
| 20260505191847 | 61 | 160 | 9.0 | 0.0 | 0.00 | 0.00 | 0.00 | 59 | 1013.0 |
| 20260505190347 | 61 | 160 | 9.0 | 0.0 | 0.00 | 0.00 | 0.00 | 59 | 1013.0 |
| 20260505184848 | 63 | 160 | 8.0 | 0.0 | 0.00 | 0.00 | 0.00 | 52 | 1013.0 |
| 20260505183348 | 63 | 160 | 8.0 | 0.0 | 0.00 | 0.00 | 0.00 | 52 | 1013.0 |
| 20260505181848 | 63 | 170 | 7.0 | 0.0 | 0.00 | 0.00 | 0.00 | 52 | 1012.0 |
| 20260505180348 | 63 | 170 | 7.0 | 0.0 | 0.00 | 0.00 | 0.00 | 52 | 1012.0 |
| 20260505174842 | 66 | 160 | 8.0 | 0.0 | 0.00 | 0.00 | 0.00 | 46 | 1012.0 |
| 20260505173347 | 66 | 160 | 8.0 | 0.0 | 0.00 | 0.00 | 0.00 | 46 | 1012.0 |
| 20260505171847 | 72 | 160 | 11.0 | 0.0 | 0.00 | 0.00 | 0.00 | 36 | 1012.0 |
| 20260505170348 | 72 | 160 | 11.0 | 0.0 | 0.00 | 0.00 | 0.00 | 36 | 1012.0 |
| 20260505164847 | 73 | 160 | 11.0 | 0.0 | 0.00 | 0.00 | 0.00 | 36 | 1012.0 |
| 20260505163347 | 73 | 160 | 11.0 | 0.0 | 0.00 | 0.00 | 0.00 | 36 | 1012.0 |
| 20260505161848 | 75 | 160 | 13.0 | 0.0 | 0.00 | 0.00 | 0.00 | 34 | 1012.0 |
| 20260505160348 | 75 | 160 | 13.0 | 0.0 | 0.00 | 0.00 | 0.00 | 34 | 1012.0 |
| 20260505153348 | 77 | 150 | 9.0 | 0.0 | 0.00 | 0.00 | 0.00 | 32 | 1012.0 |
| 20260505151856 | 79 | 150 | 6.0 | 0.0 | 0.00 | 0.00 | 0.00 | 26 | 1012.0 |
| 20260505150348 | 79 | 150 | 6.0 | 0.0 | 0.00 | 0.00 | 0.00 | 26 | 1012.0 |
| 20260505140347 | 79 | 140 | 5.0 | 0.0 | 0.00 | 0.00 | 0.00 | 26 | 1012.0 |